[[{"header":{"parameterUnit":"m.s-1","parameterCategory":2,"la1":30.2991,"la2":30.254,"lo1":-89.0895,"lo2":-89.0444,"dy":0.0017,"dx":0.0017,"nx":28,"ny":28,"refTime":"2024-10-07T03:00:00:Z","depth":"0","parameterNumber":2,"parameterNumberName":"U-component_of_CURRENTS"},"data":[0,0,0,0,0,0,0,0,0,0,0,0,0,0,0,0,0,0,0,0,0,0,0,0,0,0,0,0,0,0,0,0,0,0,0,0,0,0,0,0,0,0,0,0,0,0,0,0,0,0,0,0,0,0,0,0,0,0,0.2164,0.2164,0,0.2187,0.2187,0.2187,0.2182,0.2182,0.2182,0.2182,0.2168,0.2168,0.2167,0,0,0,0,0,0,0,0,0,0,0,0,0,0.2111,0.2112,0.2164,0.2164,0.2165,0.2187,0.2187,0.2187,0.2182,0.2182,0.2182,0.2182,0.2168,0.2168,0.2167,0,0,0,0,0,0,0,0,0,0,0,0,0,0.2132,0.2112,0.2164,0.2167,0.2167,0.2187,0.2187,0.2187,0.2182,0.2182,0.2182,0.2181,0.2168,0.2168,0.2167,0.2173,0,0,0.2167,0.2166,0,0,0,0,0,0,0,0,0.2131,0.2133,0.2166,0.2167,0.2167,0.2183,0.2163,0.2181,0.2182,0.2174,0.2182,0.2181,0.2171,0.2171,0.2173,0.2172,0.2171,0.2167,0.2166,0.2166,0.2166,0,0,0,0,0,0,0,0.2129,0.2132,0.2171,0.2166,0.2167,0.2165,0.2168,0.2166,0.2172,0.2175,0.2175,0.2181,0.2171,0.2173,0.2173,0.2171,0.2167,0.2166,0.2166,0.2166,0.22,0.2201,0,0,0,0,0,0,0.2131,0.2131,0.217,0.2172,0.215,0.2167,0.2169,0.2177,0.2173,0.2173,0.2182,0.2181,0.2174,0.2173,0.2172,0.2201,0.2166,0.2166,0.2166,0.2199,0.2201,0.2202,0,0,0,0,0,0,0.213,0.2135,0.2169,0.2153,0.2158,0.2168,0.2176,0.2177,0.2182,0.2179,0.2177,0.2186,0.2174,0.2172,0.218,0.2199,0.2166,0.2166,0.2198,0.22,0.2201,0.2243,0,0,0,0,0,0,0.2129,0.2134,0.2138,0.2154,0.2159,0.2186,0.2177,0.2178,0.2187,0.2187,0.2182,0.218,0.2173,0.218,0.2179,0.2198,0.2166,0.2197,0.2199,0.2201,0.2241,0.2246,0.2251,0,0,0,0,0,0.2127,0.2133,0.2138,0.2143,0.2165,0.2187,0.2189,0.2193,0.2188,0.2195,0.2193,0.2181,0.2192,0.2181,0.218,0.2199,0.2196,0.2198,0.22,0.2238,0.2245,0.2251,0,0,0,0,0,0,0.2107,0.2134,0.214,0.2153,0.2172,0.2187,0.2193,0.2197,0.2201,0.22,0.219,0.2189,0.2206,0.2196,0.2184,0.2216,0.2193,0.2196,0.2223,0.2229,0.2234,0.2241,0.2165,0,0,0,0,0,0.2107,0.2121,0.2146,0.2156,0.2168,0.2181,0.219,0.2197,0.2205,0.2206,0.2203,0.2205,0.2215,0.2216,0.2221,0.2233,0.2245,0.2247,0.2252,0.2256,0.2262,0.23,0.231,0.2209,0.2209,0.2209,0,0,0.21,0.2119,0.2124,0.2154,0.2167,0.2189,0.2185,0.2204,0.2221,0.2204,0.2219,0.2221,0.2223,0.2243,0.2249,0.2236,0.2294,0.2259,0.2263,0.2267,0.2304,0.2314,0.2322,0.2211,0.2211,0.221,0,0,0.2099,0.2113,0.2128,0.2149,0.2179,0.2193,0.22,0.2221,0.223,0.2248,0.2246,0.2263,0.2265,0.2279,0.2285,0.2321,0.2321,0.2321,0.235,0.2387,0.2396,0.2404,0.2441,0.2452,0.2321,0.2322,0.2322,0,0.2088,0.2115,0.2134,0.2159,0.218,0.2196,0.222,0.2235,0.2254,0.227,0.2257,0.2291,0.2287,0.2327,0.2339,0.2333,0.2354,0.2325,0.2395,0.2402,0.2409,0.2446,0.2458,0.2324,0.2324,0.2323,0.2323,0,0.2105,0.2128,0.214,0.2179,0.2202,0.2226,0.2256,0.2276,0.2286,0.2302,0.2341,0.2344,0.2367,0.237,0.2362,0.2416,0.2415,0.2398,0.2379,0.2422,0.2458,0.2469,0.2327,0.2326,0.2326,0.2325,0,0,0.2075,0.2139,0.2143,0.2168,0.2218,0.2236,0.2276,0.2319,0.235,0.2366,0.2408,0.2426,0.2433,0.2441,0.2442,0.2468,0.2534,0.2455,0.2456,0.2493,0.2624,0.2641,0.2655,0.2531,0.2533,0.2535,0.2633,0,0.2083,0.2131,0.2164,0.2206,0.2235,0.2274,0.2311,0.2351,0.2383,0.2425,0.2448,0.2483,0.246,0.2478,0.2504,0.2531,0.2564,0.251,0.2576,0.2578,0.2589,0.2668,0.2635,0.2722,0.2643,0.2645,0.2646,0,0.2089,0.2123,0.2168,0.2234,0.225,0.2277,0.2347,0.2384,0.2452,0.2479,0.2523,0.2542,0.2596,0.2562,0.2637,0.2606,0.262,0.2633,0.2637,0.2645,0.2616,0.2664,0.2744,0.2721,0.2663,0.2662,0.2661,0,0.2059,0.2125,0.216,0.2182,0.2256,0.2286,0.2327,0.2397,0.2438,0.2518,0.256,0.2618,0.266,0.2689,0.2721,0.2686,0.2803,0.2756,0.2788,0.2789,0.277,0.2767,0.2836,0.2811,0.2811,0.281,0.281,0,0.2056,0.2081,0.2148,0.2166,0.2211,0.2272,0.2327,0.238,0.2464,0.2522,0.2583,0.2647,0.2694,0.2762,0.2766,0.2833,0.2846,0.282,0.2826,0.2785,0.2782,0.2766,0.2736,0.2814,0.2813,0.2813,0.2812,0,0.2015,0.2061,0.21,0.2175,0.2197,0.2226,0.2314,0.2359,0.2449,0.2532,0.2563,0.2689,0.2793,0.2842,0.2914,0.2905,0.2897,0.2963,0.2918,0.2917,0.2903,0.2876,0.282,0.2713,0.3015,0.3016,0.3017,0,0.1998,0.2016,0.2084,0.2106,0.2137,0.2191,0.2232,0.233,0.2389,0.2555,0.2599,0.2741,0.2838,0.2977,0.3014,0.3069,0.2951,0.3041,0.2961,0.293,0.2904,0.2757,0.2657,0.2957,0.2957,0.2957,0.2958,0,0.1962,0.1986,0.202,0.2061,0.2099,0.2141,0.2215,0.2258,0.2388,0.2474,0.2617,0.2716,0.2905,0.2984,0.308,0.3089,0.2934,0.3049,0.303,0.289,0.272,0.2611,0.2863,0.2961,0.296,0.296,0.296,0.296,0.1926,0.1935,0.1978,0.2011,0.2052,0.2085,0.2097,0.2193,0.2274,0.2398,0.2556,0.2692,0.2907,0.306,0.3055,0.3077,0.2969,0.3013,0.2993,0.2853,0.2717,0.2985,0.3076,0.3076,0.3077,0.3077,0.3077,0,0.1867,0.1892,0.1927,0.1958,0.1969,0.2013,0.2077,0.2084,0.2145,0.232,0.2438,0.2694,0.2843,0.2981,0.3126,0.3056,0.2857,0.2978,0.277,0.2675,0.2959,0.2926,0.2974,0.2974,0.2974,0.2974,0.2974,0.2974,0.1838,0.1843,0.1864,0.1862,0.1883,0.1861,0.1874,0.1908,0.2012,0.2163,0.232,0.2491,0.2857,0.3148,0.318,0.3083,0.2811,0.2731,0.2635,0.2888,0.2888,0.2888,0.2852,0.2883,0.2883,0.225,0.2246,0.2243]},{"header":{"parameterUnit":"m.s-1","parameterCategory":2,"la1":30.2991,"la2":30.254,"lo1":-89.0895,"lo2":-89.0444,"dy":0.0017,"dx":0.0017,"nx":28,"ny":28,"refTime":"2024-10-07T03:00:00:Z","depth":"0","parameterNumber":3,"parameterNumberName":"V-component_of_CURRENTS"},"data":[0,0,0,0,0,0,0,0,0,0,0,0,0,0,0,0,0,0,0,0,0,0,0,0,0,0,0,0,0,0,0,0,0,0,0,0,0,0,0,0,0,0,0,0,0,0,0,0,0,0,0,0,0,0,0,0,0,0,-0.0313,-0.0313,0,-0.0363,-0.0364,-0.0364,-0.0399,-0.0399,-0.0399,-0.0399,-0.0466,-0.0468,-0.0469,0,0,0,0,0,0,0,0,0,0,0,0,0,-0.0285,-0.0285,-0.0313,-0.0313,-0.0314,-0.0363,-0.0364,-0.0365,-0.0399,-0.0399,-0.0399,-0.0399,-0.0466,-0.0467,-0.0469,0,0,0,0,0,0,0,0,0,0,0,0,0,-0.0313,-0.0285,-0.0312,-0.0336,-0.0339,-0.0363,-0.0364,-0.0365,-0.0399,-0.0399,-0.0399,-0.04,-0.0465,-0.0467,-0.047,-0.048,0,0,-0.0477,-0.0478,0,0,0,0,0,0,0,0,-0.0312,-0.0315,-0.0332,-0.0334,-0.0337,-0.0374,-0.0379,-0.0404,-0.0399,-0.0377,-0.0399,-0.04,-0.0436,-0.0441,-0.0451,-0.0483,-0.0486,-0.0477,-0.0479,-0.048,-0.0481,0,0,0,0,0,0,0,-0.031,-0.0313,-0.0334,-0.0332,-0.0336,-0.0358,-0.0362,-0.0384,-0.0406,-0.0379,-0.0381,-0.0385,-0.0438,-0.0449,-0.0453,-0.0487,-0.0477,-0.0479,-0.0481,-0.0482,-0.0529,-0.0529,0,0,0,0,0,0,-0.0299,-0.0311,-0.0332,-0.0335,-0.0324,-0.0358,-0.0362,-0.0363,-0.0405,-0.0411,-0.0385,-0.0387,-0.0444,-0.045,-0.0455,-0.0461,-0.048,-0.0482,-0.0484,-0.0529,-0.0529,-0.0529,0,0,0,0,0,0,-0.0298,-0.03,-0.033,-0.0324,-0.0329,-0.0357,-0.0358,-0.0364,-0.0374,-0.0409,-0.0416,-0.0389,-0.0445,-0.0452,-0.047,-0.0464,-0.0483,-0.0485,-0.053,-0.0529,-0.0529,-0.0477,0,0,0,0,0,0,-0.0297,-0.03,-0.0296,-0.0323,-0.0329,-0.0338,-0.0358,-0.0365,-0.0375,-0.0378,-0.0415,-0.0422,-0.0445,-0.0466,-0.0473,-0.0468,-0.0487,-0.053,-0.053,-0.0529,-0.0479,-0.0475,-0.0472,0,0,0,0,0,-0.0296,-0.0286,-0.0296,-0.0299,-0.0323,-0.0337,-0.0342,-0.0365,-0.0375,-0.0375,-0.04,-0.042,-0.0469,-0.0468,-0.0476,-0.0471,-0.053,-0.053,-0.0529,-0.0481,-0.0476,-0.0472,0,0,0,0,0,0,-0.027,-0.0289,-0.0301,-0.0296,-0.0314,-0.0342,-0.0343,-0.036,-0.0381,-0.0382,-0.0418,-0.0426,-0.0441,-0.0463,-0.0462,-0.0484,-0.0503,-0.0504,-0.0463,-0.0459,-0.0456,-0.0441,-0.0489,0,0,0,0,0,-0.0263,-0.0262,-0.0285,-0.0282,-0.0287,-0.0316,-0.0324,-0.0338,-0.036,-0.0369,-0.0396,-0.0422,-0.0445,-0.0457,-0.048,-0.0491,-0.0515,-0.0494,-0.049,-0.0487,-0.048,-0.0514,-0.0512,-0.0527,-0.0527,-0.0527,0,0,-0.0252,-0.0262,-0.0262,-0.0277,-0.0292,-0.0291,-0.0321,-0.0327,-0.0329,-0.0373,-0.0381,-0.0411,-0.0446,-0.0458,-0.0467,-0.0475,-0.0494,-0.0486,-0.0483,-0.0478,-0.0513,-0.0512,-0.051,-0.0527,-0.0527,-0.0527,0,0,-0.0226,-0.0238,-0.0228,-0.0238,-0.0254,-0.027,-0.027,-0.0295,-0.0308,-0.0321,-0.0353,-0.0376,-0.0411,-0.0433,-0.0449,-0.0439,-0.0474,-0.0448,-0.0417,-0.045,-0.0449,-0.0448,-0.0471,-0.0473,-0.0445,-0.0445,-0.0445,0,-0.0211,-0.0203,-0.0227,-0.022,-0.0222,-0.0257,-0.0244,-0.0262,-0.0291,-0.0298,-0.0315,-0.0367,-0.0398,-0.0415,-0.0412,-0.043,-0.0452,-0.043,-0.0444,-0.0444,-0.0444,-0.0468,-0.0471,-0.0443,-0.0443,-0.0443,-0.0444,0,-0.018,-0.0174,-0.0167,-0.017,-0.0175,-0.017,-0.0194,-0.0203,-0.0224,-0.0246,-0.0269,-0.0314,-0.0344,-0.0359,-0.0384,-0.0398,-0.0414,-0.0436,-0.0453,-0.044,-0.0466,-0.0469,-0.0439,-0.044,-0.0441,-0.0441,0,0,-0.0141,-0.0144,-0.0141,-0.0131,-0.0147,-0.0142,-0.0145,-0.0156,-0.0153,-0.0193,-0.0196,-0.0245,-0.0275,-0.0295,-0.0333,-0.0362,-0.0385,-0.0395,-0.0398,-0.0412,-0.0451,-0.0459,-0.0464,-0.0411,-0.0411,-0.0412,-0.0466,0,-0.0108,-0.0081,-0.0093,-0.0064,-0.005,-0.0077,-0.0074,-0.0089,-0.0114,-0.0127,-0.0182,-0.0201,-0.0249,-0.0261,-0.03,-0.0362,-0.0393,-0.0368,-0.0466,-0.0468,-0.0474,-0.0468,-0.0468,-0.0516,-0.047,-0.047,-0.0471,0,-0.0069,-0.0056,-0.0023,-0.0006,-0.0002,0.0007,0.0012,0.0009,-0.0025,-0.0046,-0.0083,-0.0125,-0.0172,-0.0217,-0.0317,-0.0299,-0.0368,-0.0421,-0.0425,-0.0453,-0.0484,-0.0524,-0.0525,-0.0685,-0.0477,-0.0477,-0.0476,0,-0.0023,-0.0002,0.0029,0.0033,0.0041,0.0052,0.0053,0.0033,0.0043,0.0004,0.0008,-0.0066,-0.0089,-0.019,-0.0298,-0.031,-0.0408,-0.0441,-0.0514,-0.0515,-0.0543,-0.0546,-0.0706,-0.0513,-0.0513,-0.0513,-0.0513,0,0.0021,0.0048,0.0053,0.0071,0.0114,0.0098,0.0132,0.0119,0.0111,0.0137,0.0054,0.0065,-0.0083,-0.0154,-0.0273,-0.0396,-0.0391,-0.0504,-0.053,-0.0525,-0.0525,-0.0689,-0.079,-0.0515,-0.0515,-0.0514,-0.0514,0,0.0068,0.0069,0.0109,0.0126,0.0137,0.0166,0.0193,0.0217,0.0195,0.0228,0.0224,0.0165,0.0074,-0.0076,-0.0229,-0.0347,-0.0576,-0.0522,-0.0499,-0.0521,-0.0743,-0.084,-0.104,-0.1117,-0.0616,-0.0616,-0.0617,0,0.0094,0.0118,0.0156,0.0188,0.0198,0.0234,0.0265,0.0259,0.0296,0.0303,0.0336,0.0263,0.024,0.0005,-0.022,-0.0431,-0.0592,-0.0575,-0.0604,-0.0754,-0.0882,-0.096,-0.1016,-0.0623,-0.0623,-0.0624,-0.0624,0,0.0147,0.0157,0.0192,0.0255,0.0297,0.0347,0.0394,0.0439,0.0447,0.0482,0.0529,0.0512,0.0293,0.0097,-0.0204,-0.0371,-0.0709,-0.0589,-0.0759,-0.0912,-0.0994,-0.108,-0.0585,-0.0627,-0.0627,-0.0627,-0.0626,-0.0626,0.019,0.0223,0.0269,0.0332,0.0385,0.0458,0.0512,0.0579,0.0654,0.0727,0.0696,0.0705,0.0389,-0.0014,-0.0269,-0.0733,-0.0744,-0.0864,-0.0971,-0.1036,-0.1115,-0.0619,-0.0681,-0.0681,-0.0681,-0.0681,-0.0681,0,0.0247,0.0283,0.0345,0.0419,0.0487,0.0501,0.0602,0.0665,0.0778,0.0854,0.0897,0.0756,0.0354,-0.0076,-0.068,-0.1024,-0.1179,-0.1235,-0.1359,-0.1399,-0.0967,-0.097,-0.1079,-0.1079,-0.1079,-0.1079,-0.1078,-0.1078,0.028,0.0348,0.0375,0.0494,0.0549,0.0643,0.0705,0.081,0.0889,0.0983,0.1004,0.0984,0.0666,-0.0425,-0.1205,-0.1414,-0.1681,-0.1756,-0.1881,-0.16,-0.1574,-0.1549,-0.1575,-0.1809,-0.181,-0.2259,-0.2264,-0.2268]}],[{"header":{"parameterUnit":"m.s-1","parameterCategory":2,"la1":30.2991,"la2":30.254,"lo1":-89.0895,"lo2":-89.0444,"dy":0.0017,"dx":0.0017,"nx":28,"ny":28,"refTime":"2024-10-07T03:00:00:Z","depth":"2","parameterNumber":2,"parameterNumberName":"U-component_of_CURRENTS"},"data":[0,0,0,0,0,0,0,0,0,0,0,0,0,0,0,0,0,0,0,0,0,0,0,0,0,0,0,0,0,0,0,0,0,0,0,0,0,0,0,0,0,0,0,0,0,0,0,0,0,0,0,0,0,0,0,0,0,0,0.2141,0.2142,0,0.2165,0.2165,0.2165,0.2163,0.2163,0.2163,0.2163,0.2154,0.2154,0.2154,0,0,0,0,0,0,0,0,0,0,0,0,0,0.2089,0.209,0.2141,0.2142,0.2142,0.2165,0.2165,0.2165,0.2163,0.2163,0.2163,0.2163,0.2154,0.2154,0.2154,0,0,0,0,0,0,0,0,0,0,0,0,0,0.211,0.209,0.2141,0.2145,0.2146,0.2165,0.2165,0.2165,0.2163,0.2163,0.2163,0.2162,0.2154,0.2154,0.2154,0.2158,0,0,0.2154,0.2153,0,0,0,0,0,0,0,0,0.2109,0.2112,0.2144,0.2145,0.2146,0.2163,0.2144,0.2162,0.2163,0.2155,0.2163,0.2162,0.2155,0.2155,0.2158,0.2158,0.2158,0.2154,0.2153,0.2153,0.2153,0,0,0,0,0,0,0,0.2107,0.2111,0.2148,0.2145,0.2146,0.2145,0.2147,0.2147,0.2154,0.2155,0.2156,0.2162,0.2155,0.2158,0.2157,0.2157,0.2154,0.2153,0.2153,0.2153,0.2191,0.2192,0,0,0,0,0,0,0.2109,0.2109,0.2148,0.2149,0.2129,0.2146,0.2149,0.2156,0.2155,0.2155,0.2162,0.2162,0.2158,0.2158,0.2157,0.2189,0.2153,0.2153,0.2153,0.219,0.2191,0.2193,0,0,0,0,0,0,0.2108,0.2113,0.2147,0.2131,0.2136,0.2147,0.2155,0.2157,0.2163,0.216,0.216,0.2168,0.2158,0.2157,0.2167,0.2187,0.2153,0.2153,0.2189,0.2191,0.2192,0.2234,0,0,0,0,0,0,0.2107,0.2112,0.2117,0.2132,0.2137,0.2164,0.2156,0.2157,0.2168,0.2168,0.2166,0.2164,0.2158,0.2167,0.2167,0.2186,0.2153,0.2188,0.219,0.2191,0.2232,0.2237,0.2242,0,0,0,0,0,0.2105,0.2112,0.2117,0.2122,0.2144,0.2165,0.2168,0.2173,0.2169,0.2177,0.2177,0.2165,0.218,0.2168,0.2167,0.2187,0.2187,0.2189,0.2191,0.2229,0.2236,0.2242,0,0,0,0,0,0,0.2088,0.2113,0.2119,0.2133,0.2152,0.2166,0.2173,0.2177,0.2184,0.2183,0.2175,0.2174,0.2193,0.2184,0.2171,0.2205,0.2183,0.2185,0.2212,0.2218,0.2223,0.223,0.2153,0,0,0,0,0,0.2089,0.2103,0.2126,0.2137,0.2149,0.2162,0.2171,0.2178,0.2187,0.2189,0.2188,0.2191,0.2202,0.2204,0.221,0.2224,0.2235,0.2238,0.2243,0.2248,0.2254,0.2291,0.23,0.22,0.22,0.22,0,0,0.2082,0.2101,0.2107,0.2135,0.2149,0.217,0.2166,0.2185,0.2203,0.2187,0.2204,0.2208,0.2211,0.2231,0.2239,0.2226,0.2284,0.2251,0.2254,0.2258,0.2294,0.2304,0.2312,0.2202,0.2202,0.2202,0,0,0.2084,0.2098,0.2113,0.2134,0.2163,0.2176,0.2184,0.2204,0.2214,0.2233,0.2233,0.225,0.2255,0.2269,0.2275,0.2312,0.2312,0.2313,0.2342,0.2378,0.2387,0.2394,0.243,0.2441,0.2313,0.2314,0.2314,0,0.2075,0.2102,0.212,0.2144,0.2164,0.218,0.2204,0.2219,0.2239,0.2255,0.2243,0.228,0.2277,0.2317,0.2329,0.2324,0.2344,0.2317,0.2386,0.2393,0.24,0.2435,0.2446,0.2316,0.2316,0.2315,0.2315,0,0.2092,0.2115,0.2127,0.2165,0.2187,0.2211,0.224,0.2261,0.2273,0.2289,0.2329,0.2333,0.2357,0.2361,0.2354,0.2407,0.2405,0.2389,0.2369,0.2413,0.2447,0.2457,0.2319,0.2318,0.2318,0.2317,0,0,0.2066,0.2128,0.2131,0.2156,0.2204,0.2222,0.2261,0.2304,0.2335,0.2353,0.2396,0.2416,0.2423,0.2431,0.2433,0.2459,0.2523,0.2446,0.2447,0.2481,0.261,0.2618,0.263,0.2521,0.2523,0.2524,0.2617,0,0.2075,0.2121,0.2153,0.2194,0.2222,0.226,0.2297,0.2337,0.2369,0.2412,0.2435,0.2471,0.245,0.2469,0.2494,0.252,0.2552,0.25,0.2563,0.2565,0.2566,0.2643,0.243,0.2495,0.2627,0.2629,0.263,0,0.2081,0.2114,0.2157,0.2221,0.2237,0.2265,0.2333,0.237,0.2438,0.2466,0.251,0.253,0.2584,0.2551,0.2624,0.2594,0.2608,0.2619,0.2623,0.2622,0.2592,0.2472,0.251,0.2648,0.2647,0.2645,0.2644,0,0.2053,0.2116,0.2151,0.2172,0.2244,0.2274,0.2314,0.2384,0.2425,0.2506,0.2547,0.2605,0.2647,0.2675,0.2705,0.2672,0.2783,0.2738,0.276,0.276,0.2588,0.2571,0.2792,0.2792,0.2791,0.2791,0.2791,0,0.205,0.2075,0.214,0.2158,0.2202,0.2261,0.2316,0.237,0.2453,0.251,0.2571,0.2633,0.2681,0.2745,0.2748,0.2807,0.2825,0.2791,0.2795,0.2599,0.2582,0.2711,0.2701,0.2795,0.2794,0.2793,0.2793,0,0.2011,0.2055,0.2094,0.2167,0.2189,0.2219,0.2306,0.235,0.244,0.2521,0.2553,0.2673,0.277,0.2819,0.2887,0.2875,0.2916,0.2925,0.27,0.2677,0.2854,0.2845,0.2962,0.2963,0.2964,0.2965,0.2966,0,0.1994,0.2012,0.208,0.2101,0.2132,0.2186,0.2227,0.2324,0.2381,0.2542,0.2584,0.272,0.2804,0.2931,0.294,0.2982,0.2979,0.2798,0.2696,0.2884,0.2877,0.2865,0.2855,0.2479,0.2476,0.2473,0.2471,0,0.196,0.1984,0.2017,0.2058,0.2096,0.2137,0.221,0.2251,0.2378,0.2459,0.2591,0.2679,0.2831,0.2803,0.2878,0.2856,0.2775,0.2748,0.3006,0.2483,0.2441,0.243,0.2432,0.2447,0.2449,0.2451,0.2452,0.2453,0.1926,0.1935,0.1977,0.201,0.205,0.2081,0.2093,0.2176,0.2249,0.234,0.2498,0.2549,0.2629,0.2648,0.2603,0.2563,0.2741,0.2593,0.2596,0.2603,0.2545,0.2508,0.2516,0.2519,0.2521,0.2523,0.2525,0,0.1867,0.1894,0.1928,0.1959,0.1964,0.2012,0.2072,0.2057,0.2099,0.2205,0.2289,0.2183,0.2211,0.2269,0.2201,0.2249,0.216,0.2136,0.1983,0.2013,0.2038,0.1943,0.1758,0.1755,0.1752,0.175,0,0,0.1838,0.1841,0.186,0.1854,0.1878,0.1848,0.1857,0.1853,0.1895,0.189,0.1899,0.2073,0.2212,0.1934,0.1942,0.1832,0.1883,0.176,0.2386,0.2236,0.2255,0.2334,0.2229,0,0,0,0,0]},{"header":{"parameterUnit":"m.s-1","parameterCategory":2,"la1":30.2991,"la2":30.254,"lo1":-89.0895,"lo2":-89.0444,"dy":0.0017,"dx":0.0017,"nx":28,"ny":28,"refTime":"2024-10-07T03:00:00:Z","depth":"2","parameterNumber":3,"parameterNumberName":"V-component_of_CURRENTS"},"data":[0,0,0,0,0,0,0,0,0,0,0,0,0,0,0,0,0,0,0,0,0,0,0,0,0,0,0,0,0,0,0,0,0,0,0,0,0,0,0,0,0,0,0,0,0,0,0,0,0,0,0,0,0,0,0,0,0,0,-0.0198,-0.0199,0,-0.025,-0.0251,-0.0251,-0.0288,-0.0288,-0.0288,-0.0289,-0.0355,-0.0357,-0.0359,0,0,0,0,0,0,0,0,0,0,0,0,0,-0.0168,-0.0169,-0.0198,-0.0199,-0.0199,-0.025,-0.0251,-0.0252,-0.0288,-0.0288,-0.0288,-0.0289,-0.0355,-0.0357,-0.0359,0,0,0,0,0,0,0,0,0,0,0,0,0,-0.0198,-0.0169,-0.0198,-0.0223,-0.0226,-0.025,-0.0251,-0.0252,-0.0288,-0.0288,-0.0289,-0.0289,-0.0354,-0.0357,-0.0359,-0.0367,0,0,-0.0366,-0.0367,0,0,0,0,0,0,0,0,-0.0196,-0.0199,-0.0219,-0.0221,-0.0224,-0.0262,-0.0265,-0.0291,-0.0288,-0.0265,-0.0289,-0.0289,-0.0325,-0.033,-0.034,-0.0371,-0.0373,-0.0366,-0.0368,-0.0369,-0.037,0,0,0,0,0,0,0,-0.0194,-0.0197,-0.022,-0.0219,-0.0223,-0.0244,-0.0249,-0.027,-0.0294,-0.0267,-0.027,-0.0274,-0.0327,-0.0337,-0.0342,-0.0374,-0.0366,-0.0369,-0.037,-0.0371,-0.0418,-0.0418,0,0,0,0,0,0,-0.0183,-0.0195,-0.0218,-0.0221,-0.021,-0.0244,-0.0249,-0.025,-0.0293,-0.03,-0.0274,-0.0275,-0.0333,-0.0339,-0.0344,-0.0351,-0.0369,-0.0371,-0.0373,-0.0418,-0.0418,-0.0418,0,0,0,0,0,0,-0.0182,-0.0185,-0.0216,-0.0209,-0.0214,-0.0244,-0.0246,-0.0251,-0.0263,-0.0298,-0.0305,-0.0279,-0.0334,-0.0341,-0.036,-0.0354,-0.0372,-0.0374,-0.0418,-0.0418,-0.0418,-0.0368,0,0,0,0,0,0,-0.0181,-0.0184,-0.0182,-0.0208,-0.0214,-0.0224,-0.0245,-0.0252,-0.0265,-0.0268,-0.0305,-0.0312,-0.0334,-0.0356,-0.0362,-0.0358,-0.0376,-0.0418,-0.0418,-0.0418,-0.037,-0.0366,-0.0363,0,0,0,0,0,-0.018,-0.0171,-0.0181,-0.0184,-0.021,-0.0224,-0.0229,-0.0253,-0.0264,-0.0265,-0.0291,-0.031,-0.0358,-0.0358,-0.0365,-0.0361,-0.0419,-0.0418,-0.0418,-0.0372,-0.0367,-0.0363,0,0,0,0,0,0,-0.0156,-0.0175,-0.0187,-0.0184,-0.0201,-0.023,-0.0232,-0.0249,-0.0271,-0.0273,-0.0308,-0.0316,-0.0332,-0.0353,-0.0351,-0.0374,-0.0392,-0.0393,-0.0354,-0.035,-0.0347,-0.0332,-0.0378,0,0,0,0,0,-0.0149,-0.0149,-0.0172,-0.017,-0.0176,-0.0204,-0.0214,-0.0228,-0.025,-0.026,-0.0287,-0.0314,-0.0335,-0.0347,-0.037,-0.0381,-0.0404,-0.0384,-0.0381,-0.0377,-0.0371,-0.0402,-0.0401,-0.0416,-0.0416,-0.0416,0,0,-0.014,-0.015,-0.015,-0.0165,-0.0181,-0.018,-0.0211,-0.0219,-0.022,-0.0264,-0.0273,-0.0303,-0.0336,-0.0349,-0.0357,-0.0366,-0.0385,-0.0377,-0.0374,-0.0369,-0.0402,-0.04,-0.0399,-0.0416,-0.0416,-0.0416,0,0,-0.0115,-0.0129,-0.0119,-0.013,-0.0146,-0.0162,-0.0162,-0.0188,-0.0201,-0.0215,-0.0246,-0.027,-0.0304,-0.0325,-0.0341,-0.0331,-0.0366,-0.0341,-0.0311,-0.0342,-0.034,-0.034,-0.0363,-0.0365,-0.0338,-0.0338,-0.0338,0,-0.0103,-0.0095,-0.0119,-0.0112,-0.0113,-0.0149,-0.0136,-0.0155,-0.0184,-0.0191,-0.021,-0.0261,-0.0291,-0.0306,-0.0305,-0.0323,-0.0345,-0.0323,-0.0336,-0.0336,-0.0336,-0.0361,-0.0363,-0.0336,-0.0336,-0.0336,-0.0337,0,-0.0073,-0.0067,-0.0061,-0.0063,-0.0068,-0.0064,-0.0087,-0.0096,-0.0119,-0.014,-0.0164,-0.0209,-0.0238,-0.0254,-0.0278,-0.0291,-0.0308,-0.0328,-0.0345,-0.0332,-0.0358,-0.0362,-0.0332,-0.0333,-0.0334,-0.0335,0,0,-0.0038,-0.0039,-0.0037,-0.0025,-0.0041,-0.0036,-0.0038,-0.0048,-0.0044,-0.0087,-0.0089,-0.0138,-0.0169,-0.0188,-0.0226,-0.0255,-0.0278,-0.0288,-0.0291,-0.0306,-0.0343,-0.0354,-0.0359,-0.0303,-0.0304,-0.0304,-0.0359,0,-0.0007,0.0022,0.001,0.004,0.0055,0.0029,0.0033,0.0019,-0.0006,-0.0018,-0.0073,-0.0092,-0.0142,-0.0156,-0.0193,-0.0255,-0.0286,-0.0261,-0.0357,-0.036,-0.0367,-0.0363,-0.0331,-0.0378,-0.0363,-0.0364,-0.0364,0,0.003,0.0045,0.0079,0.0099,0.0103,0.0112,0.0118,0.0117,0.0084,0.0063,0.0026,-0.0017,-0.0064,-0.011,-0.0209,-0.0192,-0.0261,-0.0314,-0.0317,-0.0347,-0.0378,-0.039,-0.0386,-0.0371,-0.037,-0.037,-0.0369,0,0.0074,0.0098,0.0129,0.0134,0.0144,0.0155,0.0157,0.014,0.0151,0.0112,0.0115,0.0042,0.0017,-0.0082,-0.0191,-0.0203,-0.03,-0.0332,-0.0407,-0.0408,-0.0409,-0.041,-0.0403,-0.0403,-0.0403,-0.0402,-0.0402,0,0.0117,0.0144,0.0151,0.0169,0.0212,0.0199,0.0233,0.0221,0.0215,0.0242,0.0159,0.0169,0.0023,-0.0048,-0.0165,-0.029,-0.0283,-0.0398,-0.0423,-0.0391,-0.0389,-0.0406,-0.0406,-0.0405,-0.0404,-0.0404,-0.0403,0,0.0161,0.0163,0.0204,0.0223,0.0234,0.0262,0.0291,0.0317,0.0295,0.0328,0.0324,0.0265,0.0173,0.0025,-0.0127,-0.0242,-0.037,-0.0417,-0.0364,-0.0383,-0.0466,-0.0463,-0.0511,-0.0512,-0.0513,-0.0514,-0.0514,0,0.0185,0.021,0.0248,0.0281,0.029,0.0326,0.0358,0.0355,0.0392,0.04,0.0433,0.0358,0.0331,0.0098,-0.0119,-0.0327,-0.0361,-0.0442,-0.0465,-0.0458,-0.0478,-0.0473,-0.0469,-0.0447,-0.0446,-0.0446,-0.0446,0,0.0236,0.0246,0.0281,0.0343,0.0385,0.0436,0.0483,0.0529,0.054,0.0573,0.0615,0.0595,0.0381,0.019,-0.0105,-0.0251,-0.0411,-0.0448,-0.0453,-0.0422,-0.0401,-0.0419,-0.0416,-0.0446,-0.0446,-0.0446,-0.0446,-0.0446,0.0276,0.0309,0.0354,0.0416,0.0469,0.0542,0.0596,0.0663,0.0737,0.0799,0.0767,0.0742,0.051,0.015,-0.0109,-0.0397,-0.0395,-0.0494,-0.0492,-0.0491,-0.0472,-0.0453,-0.0504,-0.0504,-0.0504,-0.0505,-0.0505,0,0.0332,0.0365,0.0427,0.05,0.0569,0.0581,0.0682,0.0747,0.0854,0.09,0.0931,0.0735,0.0506,0.0223,-0.0191,-0.0438,-0.0461,-0.0522,-0.0487,-0.0486,-0.0485,-0.0465,-0.0496,-0.0496,-0.0497,-0.0498,0,0,0.0364,0.0431,0.0459,0.0575,0.0626,0.0724,0.0785,0.0886,0.0944,0.1008,0.0994,0.094,0.06,0.0313,-0.0023,-0.0261,-0.0325,-0.0316,-0.0297,-0.0217,-0.0213,-0.0443,-0.0407,0,0,0,0,0]}],[{"header":{"parameterUnit":"m.s-1","parameterCategory":2,"la1":30.2991,"la2":30.254,"lo1":-89.0895,"lo2":-89.0444,"dy":0.0017,"dx":0.0017,"nx":28,"ny":28,"refTime":"2024-10-07T03:00:00:Z","depth":"4","parameterNumber":2,"parameterNumberName":"U-component_of_CURRENTS"},"data":[0,0,0,0,0,0,0,0,0,0,0,0,0,0,0,0,0,0,0,0,0,0,0,0,0,0,0,0,0,0,0,0,0,0,0,0,0,0,0,0,0,0,0,0,0,0,0,0,0,0,0,0,0,0,0,0,0,0,0.1435,0.1435,0,0.1498,0.1498,0.1499,0.155,0.155,0.1551,0.1552,0.162,0.1621,0.1622,0,0,0,0,0,0,0,0,0,0,0,0,0,0.1348,0.1349,0.1435,0.1436,0.1436,0.1498,0.1499,0.1499,0.1549,0.155,0.1551,0.1552,0.162,0.1621,0.1623,0,0,0,0,0,0,0,0,0,0,0,0,0,0.1394,0.135,0.1434,0.147,0.1474,0.1498,0.1499,0.1499,0.1549,0.155,0.1551,0.1552,0.1619,0.1621,0.1623,0.1614,0,0,0.1628,0.1629,0,0,0,0,0,0,0,0,0.1392,0.1397,0.1464,0.1468,0.1472,0.1518,0.1493,0.1539,0.1549,0.1519,0.1552,0.1553,0.1587,0.1592,0.1599,0.1617,0.162,0.1628,0.163,0.163,0.1631,0,0,0,0,0,0,0,0.1388,0.1395,0.1458,0.1465,0.147,0.148,0.1488,0.1502,0.1545,0.1522,0.1526,0.1535,0.1589,0.1597,0.1601,0.1621,0.1628,0.163,0.1631,0.1632,0.1729,0.1731,0,0,0,0,0,0,0.1384,0.1392,0.1456,0.146,0.1436,0.1481,0.1489,0.1501,0.1545,0.1553,0.1534,0.1538,0.1593,0.1598,0.1603,0.1681,0.163,0.1632,0.1633,0.1728,0.1729,0.1731,0,0,0,0,0,0,0.1382,0.1389,0.1453,0.1428,0.1438,0.1482,0.1494,0.1502,0.1541,0.1555,0.1563,0.157,0.1594,0.1601,0.1646,0.168,0.1633,0.1634,0.1726,0.1728,0.173,0.1781,0,0,0,0,0,0,0.1379,0.1388,0.1408,0.1428,0.1439,0.1488,0.1494,0.1503,0.1544,0.155,0.1587,0.1593,0.1595,0.1644,0.1648,0.1682,0.1636,0.1724,0.1727,0.173,0.1777,0.1784,0.1791,0,0,0,0,0,0.1375,0.1395,0.1409,0.1418,0.1461,0.1489,0.1496,0.1528,0.1545,0.1566,0.1596,0.1593,0.1665,0.1646,0.1651,0.1686,0.1723,0.1726,0.1729,0.1774,0.1783,0.179,0,0,0,0,0,0,0.1369,0.1402,0.1418,0.1448,0.1477,0.1499,0.1527,0.1544,0.1584,0.16,0.161,0.1618,0.1671,0.1671,0.1651,0.1723,0.1694,0.1699,0.1727,0.1735,0.1742,0.174,0.1637,0,0,0,0,0,0.1376,0.1404,0.1431,0.146,0.1476,0.1507,0.1528,0.155,0.158,0.16,0.1626,0.1655,0.1682,0.1704,0.1725,0.1762,0.1766,0.1789,0.1796,0.1802,0.1805,0.1839,0.1849,0.1742,0.1742,0.1742,0,0,0.1382,0.1406,0.1422,0.1461,0.1488,0.1515,0.1523,0.1565,0.1596,0.16,0.166,0.1681,0.1698,0.1744,0.1767,0.1753,0.1837,0.1806,0.1811,0.1811,0.1844,0.1854,0.1863,0.1744,0.1744,0.1744,0,0,0.1396,0.143,0.1454,0.1481,0.1527,0.1544,0.1562,0.1602,0.1634,0.1683,0.1697,0.1741,0.1782,0.1802,0.1815,0.187,0.187,0.1884,0.1919,0.1953,0.1962,0.197,0.1996,0.2006,0.1888,0.1888,0.1888,0,0.1404,0.1438,0.1466,0.1495,0.1523,0.1559,0.159,0.1621,0.1674,0.1703,0.1712,0.179,0.1807,0.1858,0.1882,0.1886,0.1903,0.1886,0.1961,0.1969,0.1976,0.2001,0.2011,0.1891,0.1891,0.189,0.189,0,0.1427,0.1465,0.1485,0.1532,0.1564,0.1601,0.1641,0.1686,0.1727,0.1756,0.1829,0.1856,0.1901,0.1917,0.1919,0.1983,0.1979,0.1964,0.1938,0.199,0.2013,0.2023,0.1895,0.1894,0.1893,0.1892,0,0,0.141,0.1486,0.1495,0.1526,0.1591,0.1614,0.1675,0.1731,0.1776,0.1833,0.1892,0.1945,0.197,0.1986,0.2001,0.2032,0.2101,0.2027,0.2028,0.2049,0.2181,0.2063,0.2062,0.2104,0.2106,0.2108,0.2179,0,0.1422,0.1477,0.1516,0.1574,0.1604,0.166,0.1711,0.177,0.1824,0.1888,0.1935,0.1995,0.1993,0.2029,0.2062,0.2094,0.2128,0.2083,0.2131,0.2132,0.2018,0.207,0.2114,0.2186,0.2189,0.219,0.2191,0,0.1424,0.1464,0.1522,0.1599,0.162,0.1664,0.1751,0.1802,0.1893,0.1939,0.2006,0.2044,0.2116,0.21,0.2182,0.2158,0.2178,0.2192,0.2195,0.2071,0.2032,0.2123,0.2208,0.2207,0.2206,0.2205,0.2204,0,0.1383,0.1464,0.1513,0.154,0.1631,0.1679,0.1736,0.1824,0.1875,0.198,0.203,0.2109,0.2167,0.2205,0.2248,0.2227,0.2325,0.2293,0.2205,0.2197,0.2258,0.2249,0.2346,0.2346,0.2346,0.2346,0.2345,0,0.1363,0.1404,0.1505,0.1529,0.1594,0.1668,0.1744,0.1812,0.1912,0.197,0.2059,0.2112,0.2199,0.2262,0.2278,0.2275,0.2354,0.2219,0.2209,0.2279,0.2271,0.2266,0.2255,0.2348,0.2348,0.2347,0.2347,0,0.1303,0.1372,0.143,0.1538,0.1576,0.1623,0.1742,0.1789,0.1899,0.198,0.2022,0.2143,0.2221,0.2288,0.2361,0.2305,0.2317,0.2297,0.2384,0.2377,0.2158,0.215,0.2192,0.2188,0.2185,0.2183,0.2181,0,0.1273,0.1301,0.1419,0.1457,0.1513,0.1596,0.1651,0.177,0.182,0.1978,0.2007,0.2133,0.2198,0.2203,0.2285,0.2312,0.2287,0.2275,0.2194,0.2157,0.2144,0.214,0.2136,0.2176,0.2175,0.2174,0.2174,0,0.1214,0.1272,0.1321,0.1399,0.1467,0.1523,0.1614,0.1636,0.1771,0.1888,0.1941,0.1987,0.2074,0.2124,0.2171,0.2182,0.2268,0.2243,0.2248,0.2172,0.2138,0.2128,0.2127,0.2163,0.2165,0.2166,0.2166,0,0.1173,0.1192,0.1268,0.1325,0.1403,0.1431,0.1485,0.1546,0.1607,0.1778,0.1795,0.1929,0.2049,0.206,0.2102,0.2109,0.2069,0.199,0.2007,0.202,0.1931,0.1862,0.18,0,0,0,0,0,0.1121,0.1135,0.1185,0.124,0.1312,0.1355,0.1453,0.151,0.1638,0.1631,0.1705,0.1775,0.1836,0.191,0.1883,0.2038,0.2084,0.1999,0.2002,0.2106,0.2118,0.203,0,0,0,0,0,0,0.1086,0.1131,0.1151,0.1157,0.1178,0.1239,0.1294,0.1381,0.1382,0.152,0.1562,0.1673,0.176,0.1833,0.185,0.1874,0.1841,0.2088,0.2084,0.2099,0.211,0.212,0.2034,0,0,0,0,0]},{"header":{"parameterUnit":"m.s-1","parameterCategory":2,"la1":30.2991,"la2":30.254,"lo1":-89.0895,"lo2":-89.0444,"dy":0.0017,"dx":0.0017,"nx":28,"ny":28,"refTime":"2024-10-07T03:00:00:Z","depth":"4","parameterNumber":3,"parameterNumberName":"V-component_of_CURRENTS"},"data":[0,0,0,0,0,0,0,0,0,0,0,0,0,0,0,0,0,0,0,0,0,0,0,0,0,0,0,0,0,0,0,0,0,0,0,0,0,0,0,0,0,0,0,0,0,0,0,0,0,0,0,0,0,0,0,0,0,0,0.0028,0.0027,0,-0.0019,-0.0019,-0.002,-0.0052,-0.0052,-0.0053,-0.0053,-0.0114,-0.0115,-0.0117,0,0,0,0,0,0,0,0,0,0,0,0,0,0.0064,0.0063,0.0028,0.0027,0.0027,-0.0019,-0.0019,-0.002,-0.0052,-0.0052,-0.0053,-0.0053,-0.0113,-0.0115,-0.0117,0,0,0,0,0,0,0,0,0,0,0,0,0,0.0035,0.0063,0.0028,0.0006,0.0003,-0.0019,-0.002,-0.002,-0.0052,-0.0052,-0.0053,-0.0053,-0.0113,-0.0115,-0.0117,-0.0125,0,0,-0.0124,-0.0124,0,0,0,0,0,0,0,0,0.0037,0.0034,0.0009,0.0007,0.0004,-0.003,-0.0029,-0.0056,-0.0052,-0.0032,-0.0053,-0.0053,-0.0086,-0.0091,-0.0099,-0.0127,-0.013,-0.0124,-0.0125,-0.0126,-0.0127,0,0,0,0,0,0,0,0.0039,0.0036,0.0009,0.0009,0.0006,-0.0011,-0.0015,-0.0034,-0.0058,-0.0034,-0.0036,-0.004,-0.0088,-0.0097,-0.0101,-0.0131,-0.0124,-0.0126,-0.0127,-0.0128,-0.0177,-0.0177,0,0,0,0,0,0,0.0047,0.0038,0.001,0.0007,0.0021,-0.0011,-0.0016,-0.0019,-0.0057,-0.0063,-0.004,-0.0041,-0.0093,-0.0099,-0.0103,-0.0114,-0.0126,-0.0128,-0.0129,-0.0177,-0.0177,-0.0177,0,0,0,0,0,0,0.0048,0.0046,0.0012,0.0022,0.0016,-0.0011,-0.0014,-0.002,-0.0032,-0.0062,-0.0068,-0.0047,-0.0094,-0.01,-0.0119,-0.0117,-0.0129,-0.0131,-0.0177,-0.0177,-0.0177,-0.0136,0,0,0,0,0,0,0.005,0.0046,0.0047,0.0022,0.0016,0.0003,-0.0014,-0.002,-0.0033,-0.0036,-0.0069,-0.0075,-0.0095,-0.0116,-0.0122,-0.012,-0.0133,-0.0177,-0.0177,-0.0177,-0.0137,-0.0134,-0.0132,0,0,0,0,0,0.0051,0.0055,0.0047,0.0044,0.0018,0.0003,-0.0002,-0.0023,-0.0033,-0.0035,-0.0058,-0.0074,-0.012,-0.0118,-0.0124,-0.0123,-0.0177,-0.0177,-0.0177,-0.0138,-0.0135,-0.0132,0,0,0,0,0,0,0.007,0.0051,0.0042,0.0039,0.0024,-0.0002,-0.0006,-0.0021,-0.0041,-0.0044,-0.0074,-0.0081,-0.0098,-0.0117,-0.0113,-0.0138,-0.0152,-0.0153,-0.012,-0.0117,-0.0115,-0.0098,-0.0134,0,0,0,0,0,0.0076,0.0073,0.0052,0.005,0.0044,0.0019,0.001,-0.0004,-0.0025,-0.0034,-0.0058,-0.0083,-0.0103,-0.0114,-0.0135,-0.0148,-0.0167,-0.0152,-0.015,-0.0147,-0.0139,-0.0167,-0.0166,-0.0177,-0.0177,-0.0177,0,0,0.0083,0.0072,0.0071,0.0054,0.004,0.0039,0.0013,0.0002,0.0001,-0.0037,-0.0047,-0.0075,-0.0105,-0.0118,-0.0128,-0.0134,-0.0155,-0.0147,-0.0145,-0.0138,-0.0167,-0.0165,-0.0164,-0.0177,-0.0177,-0.0177,0,0,0.0101,0.0087,0.0093,0.0082,0.0066,0.0052,0.0051,0.0026,0.0014,-0.0001,-0.0027,-0.005,-0.0084,-0.0101,-0.0115,-0.0112,-0.0141,-0.0123,-0.0095,-0.0123,-0.0122,-0.0121,-0.0146,-0.0148,-0.012,-0.012,-0.012,0,0.0111,0.0114,0.0092,0.0095,0.0094,0.0062,0.0071,0.0054,0.0026,0.0022,0.0002,-0.0045,-0.0073,-0.0086,-0.0087,-0.0105,-0.0126,-0.0103,-0.0118,-0.0118,-0.0118,-0.0144,-0.0146,-0.0118,-0.0119,-0.0119,-0.0119,0,0.0131,0.0135,0.0137,0.0134,0.0129,0.013,0.011,0.0101,0.0081,0.0063,0.0041,-0.0001,-0.0027,-0.0044,-0.0066,-0.0079,-0.0095,-0.0112,-0.0123,-0.0114,-0.0142,-0.0146,-0.0115,-0.0116,-0.0117,-0.0117,0,0,0.0155,0.0153,0.0155,0.0166,0.0152,0.0154,0.0152,0.0145,0.015,0.0109,0.0109,0.0062,0.0035,0.0017,-0.0017,-0.0044,-0.0069,-0.0076,-0.0078,-0.0094,-0.0129,-0.0134,-0.0138,-0.009,-0.0091,-0.0091,-0.0149,0,0.018,0.0201,0.0192,0.0218,0.023,0.0209,0.0215,0.0203,0.0182,0.0172,0.0123,0.0106,0.0059,0.0047,0.0012,-0.0046,-0.0076,-0.0052,-0.0141,-0.0143,-0.0143,-0.0142,-0.0092,-0.0152,-0.0153,-0.0153,-0.0154,0,0.0205,0.0218,0.0248,0.027,0.0274,0.0282,0.0292,0.0292,0.0267,0.0248,0.0216,0.0178,0.0134,0.0091,-0.0002,0.0014,-0.0052,-0.0102,-0.0106,-0.0124,-0.0153,-0.0163,-0.016,-0.016,-0.0159,-0.0159,-0.0158,0,0.024,0.0262,0.0291,0.0295,0.0308,0.032,0.0327,0.0315,0.0326,0.0296,0.0296,0.0233,0.0206,0.0117,0.001,0.0003,-0.0095,-0.0119,-0.0185,-0.0187,-0.0183,-0.0183,-0.0185,-0.0185,-0.0184,-0.0184,-0.0184,0,0.0271,0.0297,0.0309,0.0325,0.0367,0.036,0.0395,0.0387,0.0385,0.0404,0.0339,0.0335,0.021,0.0139,0.0033,-0.0083,-0.008,-0.0176,-0.02,-0.0165,-0.0163,-0.0186,-0.0185,-0.0187,-0.0186,-0.0186,-0.0185,0,0.0302,0.0308,0.0347,0.0371,0.0383,0.0412,0.0446,0.0468,0.0456,0.0478,0.0474,0.0411,0.0316,0.019,0.0047,-0.0045,-0.016,-0.0204,-0.015,-0.017,-0.024,-0.0236,-0.028,-0.028,-0.0281,-0.0281,-0.0281,0,0.0319,0.034,0.0383,0.0412,0.0424,0.0463,0.0493,0.05,0.0525,0.0525,0.0541,0.0467,0.0406,0.0211,0.0064,-0.0133,-0.0168,-0.0231,-0.0244,-0.023,-0.0249,-0.0245,-0.0241,-0.0282,-0.0282,-0.0283,-0.0283,0,0.0352,0.0366,0.0397,0.0453,0.0493,0.0542,0.0583,0.0608,0.0619,0.0616,0.0598,0.0496,0.0389,0.0224,0.0071,-0.0074,-0.0191,-0.0237,-0.0237,-0.025,-0.0234,-0.0251,-0.0247,-0.0284,-0.0284,-0.0284,-0.0284,0,0.0378,0.0404,0.0443,0.0493,0.0548,0.0599,0.062,0.0647,0.0668,0.0663,0.0656,0.0535,0.0464,0.0254,0.0114,-0.0027,-0.0073,-0.013,-0.0136,-0.0136,-0.0084,-0.0042,-0.0049,0,0,0,0,0,0.04,0.0429,0.048,0.0533,0.0587,0.0619,0.0672,0.0686,0.07,0.0697,0.0677,0.0577,0.0373,0.0286,0.0144,0.009,-0.0106,-0.0083,-0.0176,-0.0294,-0.0292,-0.0257,0,0,0,0,0,0,0.0415,0.0462,0.0482,0.0554,0.0594,0.0657,0.0692,0.0705,0.0699,0.0693,0.0592,0.0534,0.0339,0.0458,0.0142,0.0098,0.0016,-0.0179,-0.0182,-0.0295,-0.0293,-0.0292,-0.0255,0,0,0,0,0]}]]